DELTA 1 DEB, 21333

Orbit data source: Space-Track

DELTA 1 DEB, 21333 is space debris in SSO originally from a launch on Thu, 12 Jun 1975 UTC launched from the Air Force Western Test Range (AFWTR). Debris objects in space refer to the collection of defunct objects orbiting the Earth. Examples of debris include non-operational satellites, rocket bodies, and fragments generated from explosions, collisions, or faulty payload assembly.

Loading next visibility...
Identifier
21333, 1975-052BB
Orbit
SSO
Country
Flag of USUS
Related business
Manufacturer
Unknown
Mission
Spacecraft
Bus & Motor
Unknown
Mass
Unknown
Launch date (UTC)
1975-06-12 (51 years ago)
Launch vehicle
Unknown
Launch site
Air Force Western Test Range (AFWTR)
Object type
Payload
Rocket body
Debris
Shape & HBR
Unknown shape, 0.2 m
Radar Cross Section
Small (<0.1 m²)

Expand to show TLE details & history
Last TLE update: 22 hours ago

TLE from 22 hours ago
0 DELTA 1 DEB
1 21333U 75052BB  25349.31203916  .00000026  00000-0  11685-3 0  9991
2 21333  99.7724 144.2035 0003398 210.0009 268.4524 13.45459705699420
Epoch: 2025-12-15T07:29Z
TLE epoch observation values (Epoch: 2025-12-15T07:29:20.183Z)
Latitude
60.17889°
Longitude
145.05101°
Altitude
1,099.232 km
Speed
7.308 km/s
True Right ascension
22h 46m 23s
True Declination
60° 02' 13"
Sunlit
Object was in daylight at epoch
Visualization orbit readout
Latitude
Unknown
Longitude
Unknown
Altitude
Unknown
Speed
Unknown
Apparent Right ascension
Unknown
Apparent Declination
Unknown
Sunlit
N/A
Visualization observer readout
Local Sidereal Time
04:01:23
Azimuth
Unknown
Elevation
Unknown
Doppler factor
Unknown
Orbital elements
Apogee altitude
1,088.858 km
Perigee altitude
1,083.785 km
Semi-major axis
7,464.458 km
Eccentricity
0.00034
Inclination
99.7724°
RAAN
144.2035°
Arg. of periapsis
210.0009°
True anomaly
268.41348°
Mean anomaly
268.4524°
Eccentric anomaly
268.43294°
Mean motion
3.36547 °/min
Orbital period
106.97 mins
BSTAR
0.00011685
Loading maneuver chart data...
Computing Atmospheric mass density...
Loading historical data...
Loading historical data...
Loading historical data...
Loading historical data...
Loading historical data...
Loading historical data...
Loading historical data...

Documentation

Showing up to 5 results
|